Wind_Speed
45 43 42 39 36 34 33 31 28 27 25 24 23 23 23 24 25 26 27 30 32 34 36 39 41 44 46 48 50 51 52 54 55 55 54 50 48 47 45 46 47 44 38 32 28 26 27 26 23 23 24 22 23 26 30 35 41 49 57 67 75 83 90 93 95 95 94 93 92 90 90 90 90 92 91 89 89 90 90 90 91 90 90 89 88 88 86
41 40 38 36 34 32 30 28 26 25 24 23 22 23 23 25 27 28 29 32 34 36 37 39 41 44 47 49 51 52 53 54 55 54 52 49 48 47 45 45 47 46 40 34 30 27 27 28 26 23 22 22 25 29 33 36 39 45 52 60 69 79 89 93 95 96 95 94 93 92 92 92 90 90 88 87 88 88 88 89 91 91 93 93 92 91 87
40 38 36 35 33 29 27 26 25 24 24 23 23 24 25 27 29 31 32 34 36 38 39 40 42 45 47 50 52 54 55 55 54 53 50 48 47 46 45 46 47 47 43 37 32 28 26 27 28 24 21 21 24 29 35 38 39 43 49 55 63 75 85 91 95 96 96 96 95 95 95 92 89 88 88 88 89 90 90 92 92 92 94 94 93 92 86
38 37 36 34 31 27 25 25 25 24 25 25 26 27 28 30 32 33 34 36 37 39 41 42 44 46 48 51 53 55 56 56 54 52 48 46 47 46 46 46 47 48 45 39 34 30 26 26 27 26 23 21 22 27 35 40 41 43 46 51 58 68 79 88 94 96 97 96 96 97 96 93 92 92 93 95 96 96 95 94 93 93 95 95 94 92 87
36 35 34 32 28 26 24 25 25 25 26 27 28 29 30 32 33 34 35 36 38 41 42 44 46 47 49 51 53 56 57 57 54 50 46 45 46 46 46 46 47 48 46 41 36 32 28 27 27 25 23 21 20 25 33 41 45 44 44 48 55 63 73 84 90 94 97 97 97 99 98 96 95 94 95 97 96 95 93 91 91 91 93 95 94 92 90
33 32 31 29 27 26 25 25 26 27 28 29 30 31 32 33 34 35 37 38 40 42 44 46 47 48 50 52 54 57 58 57 54 48 45 44 46 46 46 46 47 48 48 43 37 33 30 29 29 26 22 19 19 23 30 40 47 47 44 46 51 58 67 77 85 91 97 99 99 100 100 98 96 95 95 95 92 92 90 89 89 90 91 94 93 91 90
31 30 29 28 27 27 27 27 28 29 30 31 32 33 33 34 36 38 39 41 43 44 46 47 48 49 51 52 55 58 59 57 52 47 44 45 45 46 46 46 47 48 48 45 39 34 30 28 29 27 23 19 17 20 27 37 46 48 47 47 49 55 63 71 79 87 93 97 99 99 99 99 98 98 97 96 92 92 92 90 90 91 91 93 93 91 91
30 30 30 30 29 29 29 30 30 31 33 33 34 34 35 36 38 40 41 43 45 47 47 48 49 50 51 53 55 58 60 57 51 46 45 46 46 46 46 47 47 48 49 46 40 35 31 29 28 28 25 21 18 18 23 32 42 49 49 48 49 53 59 66 74 81 88 93 97 98 100 99 100 99 97 96 93 92 93 93 92 93 92 92 93 93 92
32 31 32 33 33 33 33 33 33 33 34 35 36 36 37 39 40 42 43 45 46 48 49 49 50 51 52 54 55 58 60 55 48 46 46 46 46 46 46 47 47 48 49 47 42 37 32 29 28 27 24 22 20 19 20 26 36 45 50 50 49 52 56 62 69 76 82 89 94 97 100 101 101 100 98 96 94 93 94 94 93 93 92 90 93 94 92
35 35 35 35 36 36 36 35 35 35 36 37 38 39 40 41 43 44 45 45 47 49 50 51 52 52 52 53 54 58 60 53 46 47 48 46 46 46 46 46 47 48 49 47 44 38 33 30 28 27 23 21 20 19 19 22 29 40 49 52 50 50 54 58 64 71 78 85 91 97 101 102 102 102 99 97 96 95 95 94 93 92 91 90 91 91 91
40 39 38 38 39 39 39 39 39 39 40 41 42 43 43 44 45 46 46 46 48 50 51 52 53 54 53 52 53 58 59 51 46 48 49 47 46 46 46 46 47 47 48 48 44 39 34 31 29 28 24 20 19 18 18 20 25 34 45 52 51 50 53 56 60 66 73 80 88 94 99 101 102 101 99 97 97 96 95 95 94 92 91 90 86 84 90
45 44 42 42 42 42 42 42 42 43 44 44 45 45 46 47 47 47 48 48 49 50 52 52 54 55 54 52 53 57 57 50 47 49 49 47 46 46 46 46 47 47 48 47 44 39 35 32 30 29 27 22 18 17 16 18 22 28 39 49 53 52 51 53 57 63 69 76 83 88 94 97 98 100 99 97 98 99 97 95 93 92 92 91 85 81 86
50 49 47 46 45 45 45 45 45 46 46 47 47 48 48 49 49 49 49 50 51 51 52 53 54 54 53 52 54 56 55 50 48 49 48 47 46 45 46 46 46 47 47 47 44 39 34 32 30 29 28 23 19 17 15 15 19 25 33 44 52 53 51 51 54 59 64 70 76 83 90 94 95 97 100 99 99 100 98 96 94 93 93 93 90 86 87
53 53 52 51 50 49 49 49 48 48 49 49 49 49 50 50 51 51 51 51 52 53 53 54 53 52 52 52 53 54 52 49 48 47 47 46 45 44 45 46 46 47 47 47 44 39 34 31 29 29 28 24 21 18 15 13 15 21 28 38 47 52 52 52 52 55 59 64 69 75 83 89 92 95 98 99 100 100 100 98 96 94 95 96 94 90 90
51 52 52 53 53 53 53 52 52 51 51 51 51 51 51 51 51 51 51 52 53 54 54 54 53 52 52 51 50 50 50 48 47 46 45 44 43 43 45 45 46 47 47 46 44 39 34 30 28 28 27 22 19 18 17 14 13 17 24 32 41 49 53 54 53 53 55 59 64 69 74 81 87 91 95 99 100 101 101 100 96 92 94 97 96 93 90
48 49 49 50 51 52 53 54 54 54 53 53 53 52 52 51 51 51 52 53 55 55 55 54 54 54 53 49 46 47 47 46 45 45 44 43 42 43 44 45 46 46 46 46 44 39 33 29 28 27 25 20 17 18 18 15 13 14 19 26 35 44 51 55 53 52 53 57 61 65 69 73 79 85 91 96 100 101 101 102 100 96 96 97 97 96 91
47 47 47 46 46 47 49 51 53 54 54 54 54 53 52 52 52 53 55 56 56 56 55 55 56 55 51 46 43 44 45 45 44 44 43 41 41 42 43 45 46 46 46 45 43 38 32 29 27 26 25 21 18 18 17 16 14 14 15 20 28 37 46 53 55 54 54 56 58 61 63 66 73 82 87 92 97 101 102 102 101 100 99 97 96 95 92
47 47 47 46 45 45 45 46 48 50 51 52 53 54 54 55 55 56 56 56 54 53 51 51 51 48 44 40 38 41 43 43 43 42 41 41 40 40 43 45 46 46 46 45 42 38 32 28 25 24 23 21 18 17 17 16 16 15 15 16 22 30 39 48 54 57 57 57 56 57 60 65 72 79 83 86 92 98 101 101 101 101 100 99 97 95 93
48 48 48 47 46 45 44 44 44 45 47 48 49 50 52 52 53 52 51 49 46 43 41 42 41 39 37 35 35 38 40 40 41 41 41 40 39 40 42 44 46 46 45 44 42 38 32 29 25 22 21 21 20 18 17 16 16 17 17 16 18 24 32 41 49 56 59 59 55 54 58 63 68 72 78 82 86 91 96 99 100 101 101 101 100 98 96
47 48 48 48 48 47 45 44 44 44 44 44 44 44 45 45 45 43 41 39 37 33 32 34 34 33 33 33 34 36 37 38 39 40 40 39 38 39 42 44 45 45 44 44 42 38 33 28 25 22 21 22 22 20 18 17 16 17 18 18 18 21 26 33 43 52 58 59 57 56 58 60 63 66 71 77 81 85 90 95 98 100 101 102 102 101 99
45 45 46 46 47 47 47 46 45 44 44 43 42 41 40 39 38 36 34 33 32 29 30 32 32 31 33 33 33 35 37 38 38 39 40 39 37 38 41 44 45 45 44 43 41 38 32 26 23 23 23 22 22 22 20 18 17 16 17 18 18 19 22 27 35 44 53 58 60 60 60 58 58 61 66 72 78 81 85 90 95 98 100 101 103 104 103
44 44 43 43 44 45 45 46 45 44 44 43 42 40 39 37 35 34 33 32 31 30 31 32 32 32 34 34 34 35 37 38 38 38 39 38 36 37 41 44 45 44 43 42 40 37 32 26 23 23 24 22 22 21 20 18 17 16 16 17 18 19 20 23 28 35 45 53 58 61 61 60 58 57 60 65 72 77 81 85 90 95 99 100 102 105 106
43 43 43 42 42 41 42 43 44 44 44 43 41 40 39 37 35 34 34 33 33 32 33 33 33 34 34 34 35 36 37 38 38 38 37 36 35 37 40 43 44 43 42 41 40 36 31 26 22 22 23 22 20 21 21 20 20 20 19 18 18 20 21 22 25 29 36 45 51 56 60 62 61 58 57 59 65 72 78 82 86 91 96 99 101 104 106
42 42 42 42 41 41 40 41 41 42 43 42 41 40 39 39 37 36 36 36 35 35 35 35 35 35 35 35 35 36 37 38 38 37 37 35 34 36 40 42 43 43 42 41 39 35 29 25 22 23 24 22 19 20 22 21 20 20 19 17 16 18 21 23 25 26 29 36 43 49 53 56 60 60 60 61 63 66 71 77 82 87 92 97 100 102 105
42 42 42 42 42 41 41 40 40 41 41 41 41 41 40 40 39 39 38 38 37 37 37 36 37 37 36 36 36 37 37 37 38 37 37 35 34 36 40 42 42 42 41 40 39 34 28 24 22 23 24 23 21 21 20 18 18 17 17 17 18 18 20 23 25 26 28 31 36 41 44 48 54 60 63 63 63 64 66 71 78 83 88 92 97 101 103
43 42 42 42 42 42 41 41 40 40 40 40 40 40 40 39 39 39 39 39 39 39 38 38 37 37 36 37 37 37 37 37 37 37 36 34 34 36 40 41 41 40 40 40 38 33 27 23 22 23 23 23 22 20 18 16 17 17 16 18 20 21 21 22 24 26 28 30 32 35 38 41 46 54 61 63 64 66 68 69 74 81 85 88 92 97 102
43 42 42 42 42 42 42 42 41 41 40 39 39 39 39 38 38 38 39 39 39 39 39 38 37 37 37 37 37 37 37 37 37 37 35 33 34 37 39 40 40 40 40 39 37 32 26 22 22 23 24 22 20 18 18 17 16 16 15 16 18 20 20 21 23 25 28 30 31 33 36 39 41 45 52 58 62 66 68 70 72 76 80 84 87 92 97
43 42 42 42 42 43 43 43 43 42 41 40 40 39 39 38 38 38 39 39 39 39 39 38 37 38 38 38 38 37 37 36 37 36 34 33 34 37 39 40 41 40 39 38 36 30 24 22 23 23 22 21 19 19 20 19 16 14 13 14 16 19 20 20 22 25 27 29 31 31 33 38 41 41 43 48 54 60 65 69 71 73 76 80 84 87 92
42 42 42 42 43 43 43 44 44 43 42 42 42 42 41 40 40 40 41 40 40 39 38 38 38 39 39 38 38 37 36 36 37 35 33 32 35 38 40 41 40 39 37 37 35 28 22 21 21 21 20 20 20 20 20 20 17 14 13 14 16 18 20 21 22 24 25 27 29 30 32 37 41 42 41 42 46 52 59 65 69 72 74 76 79 84 88
42 42 42 43 44 44 44 45 44 44 44 44 44 44 43 43 43 43 43 43 43 42 40 39 38 38 39 38 37 37 37 36 36 33 31 32 35 38 40 40 39 38 37 36 32 25 20 20 19 19 20 20 20 19 19 19 18 17 15 15 17 18 20 22 22 23 24 26 27 30 34 37 41 43 43 44 45 48 54 60 65 68 71 73 76 80 85
42 43 44 44 44 45 46 46 45 45 46 46 46 46 45 45 45 44 43 43 44 44 43 41 40 39 39 38 38 38 37 35 33 31 31 32 35 38 39 38 37 36 36 35 30 23 20 19 18 18 20 20 19 19 17 16 17 19 17 16 18 21 22 23 23 23 25 26 27 30 33 36 40 42 43 45 47 48 50 55 61 65 69 72 74 77 81
43 44 44 44 45 46 46 46 46 46 46 45 44 44 43 43 43 43 42 42 41 41 41 41 41 39 38 38 38 37 35 33 31 30 31 33 36 37 37 37 36 36 35 33 27 21 19 19 17 17 19 20 19 18 17 15 17 19 19 18 21 24 25 25 24 25 26 28 29 31 32 34 38 41 44 46 49 50 50 52 55 60 66 70 73 76 79
43 44 44 45 45 46 46 46 45 43 41 38 36 36 36 37 37 38 38 38 37 37 37 37 37 37 37 37 36 35 33 31 29 29 31 34 35 36 36 36 35 35 34 31 24 20 19 19 18 18 19 19 17 18 18 17 17 18 18 19 21 23 24 25 26 27 27 29 30 31 33 34 36 39 42 45 47 49 52 53 54 56 60 64 68 72 76
44 44 44 45 46 46 46 44 42 37 33 30 29 29 29 30 30 31 32 32 31 32 32 33 33 34 35 35 34 33 31 29 28 29 32 34 34 35 35 35 34 34 32 28 22 19 18 18 18 19 18 17 17 18 19 17 17 18 18 19 21 22 22 23 24 25 27 29 30 31 33 34 35 37 39 42 45 47 49 52 54 55 57 59 63 67 71
44 44 44 45 45 45 44 42 37 32 28 26 26 25 25 25 25 26 26 26 26 28 29 30 31 32 33 33 31 30 28 27 27 30 31 32 33 34 33 32 32 32 29 23 19 18 18 18 18 17 16 16 18 19 17 16 19 22 22 21 21 21 22 22 23 23 25 27 29 30 32 33 35 36 38 40 42 45 46 48 50 53 55 57 59 62 65
45 45 44 44 44 43 41 39 35 30 27 26 25 25 24 24 24 24 25 25 26 27 28 29 30 32 31 30 29 27 26 27 28 29 30 31 33 32 30 29 30 28 24 20 19 18 17 18 18 17 16 18 19 18 16 19 23 25 24 22 22 21 22 23 23 24 24 25 27 28 30 32 33 35 37 38 40 42 43 45 46 49 52 54 56 59 62
46 45 44 44 43 41 40 37 34 30 28 27 27 26 26 26 25 26 26 27 27 28 29 30 31 31 30 28 28 28 27 27 28 29 30 31 31 30 28 27 27 25 21 20 20 18 17 17 17 17 19 20 20 18 19 23 25 24 23 23 23 22 23 24 24 25 25 26 27 28 29 31 32 33 35 36 38 39 41 42 44 46 48 51 53 56 59
47 46 44 43 42 41 39 37 34 31 30 29 29 28 28 28 28 28 29 29 29 29 30 31 31 30 28 28 29 28 26 27 28 29 30 30 29 28 27 27 26 24 21 20 19 18 16 16 17 19 20 22 21 21 22 23 24 24 25 25 24 24 25 25 26 26 27 28 28 29 30 30 31 33 34 35 37 38 40 41 43 45 46 49 51 53 56
47 46 44 43 42 40 39 37 34 33 32 32 31 31 31 32 31 31 31 32 32 32 32 31 30 28 27 28 28 27 26 27 28 29 30 29 26 25 25 26 24 22 21 19 17 16 16 17 19 20 21 22 23 23 24 24 24 25 27 27 26 27 27 27 27 28 28 29 29 30 30 31 31 32 33 35 36 37 39 40 42 43 45 48 50 52 54
47 45 44 43 42 41 40 38 35 34 34 34 34 34 34 34 34 34 34 35 34 34 32 30 28 27 27 28 28 27 26 27 28 29 29 28 25 23 23 24 23 22 20 19 18 17 17 19 20 20 21 22 24 25 26 26 26 27 28 29 29 28 28 28 28 28 29 30 30 31 31 32 32 32 33 34 35 36 37 39 41 42 44 46 48 50 52
46 45 45 44 42 42 40 38 35 35 35 35 36 36 36 36 37 37 37 36 35 33 30 28 27 27 28 28 28 27 27 28 29 28 26 24 23 23 23 23 22 21 20 20 19 18 18 19 21 21 23 24 25 26 26 26 27 28 29 29 28 28 28 29 29 29 29 30 31 31 32 32 32 33 33 33 34 35 36 38 39 41 43 45 47 49 51
46 46 45 44 44 43 40 37 35 35 36 36 37 37 38 39 39 38 36 34 32 29 28 27 27 28 29 28 28 28 28 28 28 26 23 22 22 24 24 23 22 21 21 21 20 19 20 21 22 23 24 25 25 25 26 26 27 28 28 28 27 28 28 29 29 30 31 31 32 32 33 33 33 34 34 34 34 35 36 37 39 40 42 44 46 48 49
47 46 46 45 44 43 39 36 35 35 37 38 38 39 40 39 38 35 32 29 27 25 26 28 29 29 29 28 28 29 28 27 26 24 23 23 24 25 25 24 22 21 21 21 20 20 21 22 22 23 24 24 25 25 26 26 27 28 27 27 27 27 28 29 30 31 32 32 33 33 33 34 34 35 35 35 36 36 37 38 39 40 42 43 45 46 48
47 46 46 45 44 41 37 36 36 37 38 40 41 41 39 37 33 30 27 25 23 24 26 29 30 29 28 27 28 29 28 26 25 24 24 24 25 26 25 23 21 20 21 21 21 21 22 22 22 23 24 25 25 26 26 27 27 28 28 28 28 28 29 30 31 32 33 34 34 34 34 35 36 36 37 37 37 38 39 40 40 41 42 44 45 46 46
46 46 46 45 42 39 37 37 38 40 41 42 41 38 35 31 28 26 25 24 24 25 27 28 28 26 26 27 28 29 27 26 24 24 25 26 26 25 24 22 21 21 21 21 22 22 22 22 22 24 25 25 26 26 26 28 29 29 29 29 29 30 31 32 33 34 35 35 36 36 36 36 36 37 38 38 38 39 40 41 42 43 43 44 45 46 46
45 45 45 43 41 40 40 41 42 43 42 39 35 31 27 24 23 24 25 26 26 27 27 26 25 25 26 28 28 27 25 24 24 24 26 26 25 24 23 22 21 21 21 21 22 22 21 21 23 24 25 26 26 26 27 29 30 31 30 30 31 32 32 33 34 35 36 37 38 38 38 38 38 38 38 38 38 39 40 41 42 43 43 44 45 45 45
44 43 42 41 41 42 44 44 44 42 37 32 28 25 22 20 20 21 23 24 25 25 25 24 25 26 28 28 27 25 24 23 24 25 26 25 24 23 22 21 21 21 21 21 22 22 20 21 22 24 25 26 26 27 27 29 30 31 31 31 32 32 34 35 36 36 37 38 39 40 40 40 40 40 40 39 39 39 40 41 42 42 43 44 44 44 44
42 41 41 42 44 45 44 42 39 36 30 26 24 23 20 19 18 18 19 21 23 25 25 26 27 29 28 26 25 24 24 24 25 26 26 24 22 21 21 20 19 20 21 22 22 21 20 21 23 25 26 26 26 26 28 29 31 31 31 31 32 33 34 36 37 38 39 40 41 42 43 43 42 42 42 42 41 41 41 41 42 42 43 43 43 44 43
40 41 43 45 44 42 39 36 32 29 25 24 24 23 21 20 19 19 20 22 24 26 27 28 28 28 26 24 23 23 24 25 26 25 23 22 20 19 18 18 19 20 21 22 22 21 22 22 24 25 27 27 27 27 29 30 31 31 31 32 33 35 35 36 37 39 40 42 43 44 45 45 45 45 44 44 44 43 43 42 43 43 42 42 43 43 43
42 44 44 42 38 35 32 29 26 23 22 23 24 24 22 21 20 21 23 25 27 27 26 26 26 25 25 24 23 23 24 25 24 22 20 19 17 17 17 18 19 19 21 21 21 22 23 24 24 26 27 28 27 28 30 30 30 31 32 33 35 36 37 38 39 40 42 44 45 46 47 48 48 47 47 47 46 45 44 43 43 43 42 42 42 42 42
43 41 38 34 30 28 26 24 22 20 20 22 24 24 23 22 22 23 25 27 28 27 26 25 24 24 24 24 24 24 24 23 22 20 17 16 16 17 18 18 18 19 21 21 21 22 23 24 24 26 28 28 28 29 30 30 30 31 33 35 36 37 38 39 41 42 44 47 48 49 50 51 51 51 50 49 48 47 46 44 44 43 42 41 41 41 41
37 33 29 27 25 23 21 21 20 19 21 24 25 24 23 24 25 26 27 28 28 27 26 25 24 24 24 25 25 24 22 21 20 18 17 16 17 17 17 17 18 20 21 21 22 23 24 24 25 27 28 28 29 30 30 30 31 33 35 36 38 39 40 41 42 44 46 49 51 52 53 54 54 54 53 52 50 49 47 45 44 43 42 42 41 41 41
Wind_Direction
302 303 303 304 304 304 303 305 307 308 309 311 313 315 316 316 316 319 320 321 322 324 327 331 332 332 332 332 333 334 336 339 340 341 341 341 341 344 347 349 350 349 344 336 327 318 310 305 298 287 275 259 241 232 231 228 223 220 218 215 212 211 210 209 210 211 211 212 213 213 213 213 211 210 209 209 210 210 208 209 209 208 209 211 212 211 210
302 303 303 302 302 302 302 304 306 307 309 311 313 315 316 316 316 318 320 322 323 325 328 330 331 331 331 332 332 333 336 338 340 339 339 340 341 343 346 349 350 349 345 337 329 321 313 309 304 293 278 260 242 229 227 229 226 223 220 216 213 211 210 209 210 211 211 211 212 213 214 214 213 212 211 210 212 211 210 210 210 210 210 210 211 210 208
301 302 301 300 300 299 299 301 304 306 309 311 313 315 316 316 316 318 321 324 326 327 328 328 329 329 330 332 333 334 335 337 338 338 337 339 341 342 345 348 349 349 346 339 331 323 318 315 311 304 288 264 243 228 223 225 227 225 221 216 214 212 210 209 210 211 211 211 212 213 214 213 213 213 212 212 212 212 211 211 211 212 212 212 211 210 207
300 300 298 297 297 296 296 299 302 305 308 310 312 314 315 316 316 320 323 325 326 326 326 327 328 329 331 333 335 334 334 335 336 337 336 338 340 342 344 347 348 348 346 341 333 327 324 321 316 310 297 273 248 229 221 221 224 226 221 217 215 213 211 211 211 211 211 211 212 213 214 213 213 213 212 212 212 211 211 211 211 212 213 213 212 210 207
300 298 296 295 294 293 294 297 300 304 306 308 310 312 313 315 317 320 322 323 323 323 324 325 327 329 332 335 335 334 334 334 335 335 336 338 340 341 343 346 347 347 346 342 335 331 329 325 322 316 305 286 259 234 221 216 220 224 222 218 216 214 212 211 211 211 212 211 212 212 213 214 213 214 214 213 212 212 212 212 212 213 214 215 213 210 208
299 296 295 294 293 292 294 296 299 302 304 305 307 310 313 315 316 318 319 320 321 321 322 325 327 330 333 335 335 333 333 334 334 334 335 337 339 340 342 345 346 345 345 342 336 332 329 326 325 321 311 294 271 245 225 216 217 220 220 218 215 214 213 212 211 212 212 213 212 212 213 214 213 214 216 216 214 214 213 212 213 214 216 216 214 211 210
299 296 294 293 292 292 293 295 297 299 301 303 306 308 311 312 314 316 317 319 320 321 323 325 327 331 333 334 333 332 333 333 332 332 334 336 338 339 341 344 345 344 344 342 338 333 329 327 327 323 313 299 280 254 233 220 217 217 218 217 214 213 213 212 212 212 213 214 214 214 214 214 213 214 216 216 214 214 214 213 213 214 216 217 216 212 211
298 295 294 293 292 291 292 293 295 296 299 302 304 306 309 310 312 315 317 319 321 322 324 325 328 331 333 332 331 330 331 332 331 331 333 335 336 337 339 342 343 343 343 342 339 335 331 328 328 325 315 305 294 269 244 228 219 217 218 217 215 213 213 212 212 212 213 214 214 215 215 215 215 215 215 216 215 214 214 213 213 214 215 217 217 215 212
297 295 293 292 291 290 291 292 294 295 297 300 302 305 307 309 311 314 317 320 322 323 324 326 328 331 331 329 327 328 330 330 330 330 332 333 334 335 337 340 342 342 342 342 339 335 332 328 328 328 317 306 299 283 258 238 225 219 218 218 216 214 213 212 212 212 213 214 214 215 215 215 216 215 215 216 216 215 215 214 214 215 215 216 218 217 214
295 294 293 292 290 289 289 290 292 294 296 298 300 302 305 307 310 312 316 319 321 322 324 325 327 328 328 326 324 325 328 329 329 330 331 331 332 333 336 338 340 341 341 341 339 335 332 329 328 329 321 307 299 287 267 246 229 220 218 219 218 216 214 213 212 212 213 214 214 215 216 215 216 216 216 216 216 216 216 215 215 215 215 216 219 218 216
291 291 292 292 291 289 287 288 289 292 294 296 298 300 303 305 308 310 313 316 319 321 322 323 324 325 324 322 322 324 326 327 328 329 329 329 330 331 334 336 338 339 340 341 339 334 331 329 328 329 326 312 300 289 272 252 234 223 219 220 219 217 216 214 213 213 213 214 215 216 216 216 216 216 216 216 217 217 217 216 216 216 215 216 218 219 219
287 287 288 288 289 289 288 287 287 289 292 294 296 298 301 303 305 308 311 313 316 318 320 320 320 320 320 320 320 321 323 324 325 326 326 327 328 329 332 334 336 338 339 340 339 334 330 328 328 329 328 319 306 294 277 257 239 226 220 219 219 219 218 216 215 214 214 215 215 216 216 217 217 217 217 217 217 218 218 217 217 217 216 216 216 217 218
284 284 285 285 285 286 287 287 287 288 290 292 294 296 298 301 303 306 308 310 312 315 317 317 316 315 316 317 317 318 320 320 321 322 324 324 325 327 329 332 334 336 338 339 338 334 329 326 327 330 329 324 315 302 284 263 244 230 221 219 219 220 219 218 217 216 215 216 217 217 216 216 217 218 218 217 218 218 218 217 217 217 217 217 217 216 217
282 282 282 282 283 283 284 284 285 287 289 290 292 293 295 298 300 303 304 305 307 311 313 312 312 312 313 314 314 315 316 316 316 319 322 322 322 324 327 329 331 334 336 338 337 334 329 326 327 330 330 327 320 308 293 272 249 232 224 220 219 220 220 219 219 217 216 217 217 218 218 217 217 218 218 218 219 219 218 218 218 218 218 218 218 218 218
283 282 282 281 281 281 282 283 284 285 287 288 290 291 293 296 298 299 300 300 303 307 309 308 307 307 308 309 310 310 310 311 313 316 319 319 319 322 325 327 329 332 335 336 336 333 328 325 326 329 330 327 320 311 304 291 264 239 226 222 221 220 220 220 220 219 218 218 218 218 218 217 217 218 218 218 219 219 219 218 217 219 219 219 219 218 218
284 285 284 284 283 282 282 282 283 284 285 287 289 290 292 294 295 295 295 297 300 303 304 304 303 303 304 304 303 304 305 307 310 313 315 316 316 319 322 324 327 330 333 335 335 332 328 324 325 329 329 324 314 308 305 297 280 253 232 224 222 221 220 220 220 220 219 220 219 218 217 217 217 218 218 219 219 220 220 219 217 218 220 220 220 219 219
284 285 285 286 286 285 284 284 284 284 285 285 287 288 289 290 290 291 292 295 298 299 300 300 299 300 299 298 298 300 302 304 307 310 312 313 314 317 320 322 324 328 331 333 334 331 327 323 323 327 327 321 312 308 304 297 288 269 244 228 223 221 221 220 220 220 221 222 222 219 218 217 217 217 218 219 219 220 221 220 218 218 220 220 220 220 220
284 284 284 285 285 285 286 286 285 285 285 285 285 285 286 287 288 290 291 293 295 296 296 296 296 295 295 294 295 296 298 301 305 308 310 311 313 316 318 319 322 325 328 331 332 330 325 321 321 326 327 320 313 309 303 296 290 280 262 243 229 224 222 221 220 220 221 223 223 222 220 219 218 217 217 218 219 220 221 221 219 219 220 220 220 220 219
285 284 284 284 284 284 284 285 285 286 286 286 286 286 286 287 288 289 290 291 292 292 292 292 292 291 291 292 292 293 296 301 304 306 308 310 313 315 315 316 319 322 326 329 330 328 324 320 319 323 325 318 311 306 300 291 285 280 271 258 241 230 224 221 221 222 222 223 223 223 223 221 220 219 218 218 219 219 220 221 220 220 220 220 221 220 219
288 287 286 285 284 284 283 283 283 284 285 286 286 286 287 287 287 288 288 288 287 288 289 289 289 290 290 291 293 295 298 300 302 304 306 309 311 312 312 313 317 320 323 327 328 326 323 319 317 320 323 318 311 307 301 292 282 275 271 264 252 239 229 223 221 222 223 223 223 224 225 224 222 221 221 219 219 220 220 221 221 220 220 221 221 221 221
291 290 289 288 286 285 284 283 282 282 283 284 284 285 286 286 286 286 285 283 283 285 286 286 289 290 290 292 295 297 298 300 301 302 304 306 309 309 309 311 314 317 322 325 326 325 322 317 314 317 319 316 310 306 303 295 285 274 266 262 257 249 240 231 225 222 222 224 224 225 227 227 225 224 223 221 220 221 221 221 221 220 220 221 222 222 222
293 292 292 292 290 288 285 284 283 282 282 282 282 283 283 283 283 283 281 280 280 282 283 285 287 288 289 292 295 295 297 299 300 301 303 305 306 306 306 308 312 316 320 323 324 323 319 315 313 314 317 315 309 303 300 295 288 276 262 255 253 250 246 239 232 226 223 224 225 226 227 228 227 226 226 224 222 222 222 222 222 221 220 221 222 222 222
295 295 294 294 294 292 289 286 284 282 281 281 281 281 281 280 280 279 278 278 278 279 280 283 285 286 288 290 292 294 296 297 297 299 302 303 302 302 304 307 310 314 317 320 322 321 317 312 312 313 313 312 306 301 299 296 288 277 266 255 247 244 243 240 236 230 225 224 225 226 227 228 227 226 227 226 224 223 223 223 223 222 221 221 222 222 223
297 297 296 296 295 295 293 291 288 285 282 281 280 280 280 279 278 277 277 277 276 276 278 280 281 284 286 288 290 293 295 294 295 299 301 300 299 300 302 305 308 311 315 318 321 320 314 309 310 310 308 305 299 295 297 295 286 277 270 259 244 238 239 239 238 234 228 225 225 226 228 230 229 228 228 227 226 225 225 225 225 224 223 222 222 222 223
297 297 297 297 297 296 295 294 292 289 286 283 280 279 279 279 278 277 276 275 275 276 276 277 280 283 285 287 289 292 293 292 294 298 299 299 298 298 300 303 306 309 313 316 319 318 312 306 306 306 305 303 299 298 298 292 281 273 265 256 248 242 239 239 238 234 230 227 226 226 228 230 229 228 229 229 227 225 225 226 226 226 225 224 224 223 224
295 296 297 298 298 298 297 296 295 293 290 286 283 280 278 278 278 278 277 276 275 275 275 276 279 281 283 286 288 290 290 291 294 297 297 297 296 296 297 301 304 307 311 315 317 315 309 304 303 304 303 301 299 301 301 291 278 271 261 252 249 248 243 239 237 234 231 230 228 226 227 229 229 229 230 231 229 227 226 226 226 226 226 226 225 225 225
294 295 296 298 298 298 297 296 295 293 292 289 286 283 280 279 278 278 278 277 277 276 275 276 278 279 281 284 286 287 288 290 292 295 295 294 294 294 295 298 302 306 309 313 315 313 307 301 301 302 301 300 299 303 305 296 280 270 262 254 250 251 249 242 237 235 233 233 233 229 226 229 231 232 231 231 229 229 229 229 228 228 228 228 227 227 226
293 295 296 297 298 298 297 296 293 292 290 289 286 283 280 278 277 277 276 276 275 275 274 274 276 278 280 281 283 284 286 289 291 292 292 292 292 292 293 297 301 305 308 312 314 311 304 299 300 302 302 303 304 307 305 297 282 269 264 260 253 250 249 245 240 238 234 231 234 233 228 228 232 234 233 232 230 228 229 229 230 230 230 229 228 227 227
293 294 295 297 298 299 300 298 294 290 288 287 285 282 280 277 275 274 273 273 273 273 273 273 275 277 278 279 282 284 286 288 289 289 288 287 288 289 292 296 300 304 308 312 312 308 301 298 301 303 302 302 304 305 303 297 290 276 264 261 258 254 252 251 246 243 240 235 233 233 230 230 232 233 233 233 232 229 228 229 230 231 231 230 229 228 227
293 295 296 297 299 300 301 299 295 291 288 286 284 281 279 276 275 273 272 271 271 271 272 273 274 276 277 279 281 283 285 287 287 285 283 284 286 288 291 295 299 303 307 311 310 305 297 295 297 298 298 297 300 302 301 298 294 283 268 264 266 262 258 256 251 247 246 243 239 237 234 233 235 236 236 236 235 232 230 230 230 231 232 231 230 230 229
295 296 296 297 299 300 301 300 296 292 289 286 282 279 276 274 273 273 272 270 270 270 270 271 272 273 275 278 280 281 283 285 284 282 281 283 285 287 290 294 298 302 307 310 308 300 293 292 295 296 295 296 299 302 301 296 292 288 282 278 275 270 265 263 258 251 248 246 244 243 240 237 237 237 238 239 238 236 235 234 232 231 232 232 232 231 230
297 297 297 297 298 299 301 300 298 294 291 286 281 277 274 272 271 271 271 270 270 270 270 270 270 272 273 275 277 279 281 281 279 278 280 282 283 285 289 293 297 302 307 309 305 296 290 292 294 292 291 294 299 301 298 291 288 291 291 286 278 273 270 269 265 259 253 249 246 244 244 242 240 238 239 241 241 240 239 239 237 234 234 234 234 233 232
299 299 298 298 298 300 302 302 300 296 292 287 282 278 274 271 270 269 269 270 271 271 270 270 270 270 271 273 275 277 277 277 275 276 279 280 280 284 289 293 297 303 307 306 300 292 287 291 294 293 292 294 297 297 294 291 289 292 295 290 281 276 276 274 270 266 262 257 253 249 247 246 244 241 242 244 244 243 242 242 242 241 239 237 237 236 236
300 300 299 299 299 301 303 303 301 296 291 288 285 280 276 273 271 270 271 271 270 269 268 268 268 269 269 271 273 274 274 273 275 277 277 277 279 285 289 293 298 304 306 303 296 287 286 291 296 298 296 295 294 294 296 295 290 288 288 284 280 280 282 280 276 273 270 266 263 260 256 253 251 248 247 246 246 246 245 244 243 244 243 241 239 239 239
301 301 300 299 300 301 303 303 299 293 289 288 287 283 279 277 274 273 272 271 269 268 267 267 267 267 268 269 271 270 269 270 272 273 274 276 281 286 290 293 299 304 304 297 287 282 285 294 299 298 294 292 292 294 294 290 286 287 287 284 281 282 284 283 280 279 277 274 271 268 265 262 258 255 253 251 250 249 248 246 245 245 244 243 242 241 241
301 300 299 299 300 301 302 300 294 287 285 286 284 282 280 278 275 273 272 270 268 267 267 266 266 266 266 267 265 263 263 266 269 271 273 278 283 285 288 293 300 302 297 286 278 280 288 296 296 292 288 287 287 289 289 286 287 290 291 290 289 288 287 286 285 283 282 281 278 275 272 268 265 261 257 255 254 253 252 250 248 247 246 245 244 244 243
300 299 299 299 300 300 300 297 290 283 281 282 281 280 280 278 276 274 272 270 269 268 267 266 266 265 265 262 258 256 259 263 266 270 274 278 280 282 286 293 299 297 286 275 273 278 284 287 287 288 289 287 285 288 292 294 295 296 296 295 296 296 295 293 291 289 287 285 283 281 279 275 271 268 263 259 256 255 254 253 251 250 249 248 246 245 245
299 298 298 299 300 299 298 295 287 279 277 278 278 278 279 277 276 275 274 273 272 270 268 267 265 263 260 255 254 256 260 263 266 270 273 273 275 279 285 292 295 291 280 272 271 275 279 279 280 285 288 286 286 292 300 301 300 300 300 301 302 302 301 300 298 295 294 291 289 287 285 282 279 275 271 266 262 258 256 255 253 252 251 250 249 248 247
297 297 298 299 299 297 296 293 285 277 275 276 277 277 277 277 276 276 276 275 274 271 268 265 262 258 254 251 252 256 259 262 265 269 269 269 274 282 288 292 292 285 275 268 268 272 276 276 277 284 288 287 288 296 302 301 299 300 303 307 308 308 307 306 304 301 299 297 295 293 290 287 284 281 278 274 269 265 262 259 257 255 254 253 252 251 250
295 296 297 298 297 296 295 291 283 276 275 276 277 277 277 277 277 277 277 275 272 269 265 260 256 251 248 247 250 253 257 261 264 265 265 268 274 281 286 289 287 278 269 264 263 268 273 273 275 282 286 285 288 297 303 305 306 309 311 313 313 312 311 310 309 308 306 304 302 299 296 292 289 286 282 279 275 271 268 265 263 261 259 257 256 254 253
294 295 296 296 296 295 293 289 282 276 275 276 277 277 277 278 279 279 277 274 270 265 259 252 246 243 243 245 247 250 255 259 260 261 263 269 275 280 285 286 280 270 265 264 265 269 272 273 276 282 284 284 290 300 306 310 313 315 315 315 316 317 316 315 315 314 313 310 308 305 302 299 296 292 288 284 280 276 273 270 268 266 264 263 261 259 257
293 295 295 295 295 294 291 286 280 277 276 277 278 279 280 280 280 278 275 269 264 257 248 241 238 238 240 243 246 251 255 257 257 259 264 270 277 283 286 283 273 262 259 263 267 270 272 274 279 285 288 291 297 304 309 313 316 317 318 320 322 322 321 321 321 320 318 316 314 312 309 306 302 299 295 291 286 282 278 275 273 271 269 267 266 264 262
292 293 293 293 293 291 288 284 280 278 279 279 280 281 281 280 278 273 268 262 256 246 237 233 234 237 240 244 248 251 253 253 255 260 266 272 279 285 284 277 266 258 256 259 264 268 273 278 282 286 291 296 301 305 309 315 319 321 323 324 325 326 326 327 326 326 324 322 320 318 315 312 309 305 301 297 293 289 285 282 279 277 275 273 271 269 267
291 291 291 291 290 288 285 282 281 281 282 282 282 282 280 276 270 262 255 251 245 238 232 232 236 240 243 245 248 250 251 252 257 263 268 275 281 283 279 270 262 256 255 259 264 270 277 282 285 288 293 300 304 306 310 316 319 321 324 326 327 329 330 330 329 328 327 325 323 321 320 318 315 311 307 302 298 294 291 288 286 283 281 279 278 276 273
290 290 290 289 288 286 284 283 283 284 284 283 282 279 274 268 260 251 242 237 234 233 233 235 239 243 245 246 247 249 251 254 259 265 272 278 282 280 272 263 256 253 255 260 268 275 281 285 287 291 298 304 307 308 311 316 318 320 321 325 328 330 330 330 330 329 327 326 324 322 321 320 319 316 312 307 302 298 294 292 289 288 286 284 282 280 278
289 288 288 287 286 285 285 286 286 285 284 281 277 271 264 257 249 241 234 229 229 231 233 236 239 242 243 243 244 246 250 256 263 269 275 280 280 274 264 256 253 254 258 264 271 278 283 287 289 294 301 307 309 310 312 315 316 318 320 324 327 329 329 329 329 328 328 326 325 324 323 322 320 318 314 310 305 300 297 294 292 290 289 287 285 283 281
287 286 285 284 285 286 287 287 285 283 280 274 266 257 249 241 235 232 229 226 225 228 231 233 235 237 238 239 242 246 253 261 267 273 278 280 275 266 258 254 254 258 263 268 275 282 287 289 290 295 303 308 309 310 311 313 315 318 321 324 326 327 327 328 327 327 328 328 327 326 325 324 322 320 317 314 310 305 301 298 295 293 292 290 289 287 285
285 284 283 285 286 286 285 283 280 277 272 261 247 237 231 225 222 223 223 223 224 226 228 229 232 234 237 240 245 252 259 265 271 276 278 275 267 259 254 254 256 261 266 272 279 285 289 289 291 297 305 309 309 308 311 315 317 319 321 323 325 326 326 326 327 328 329 330 330 329 328 326 324 322 320 318 315 311 306 303 300 297 296 294 293 291 289
283 283 285 286 286 283 280 276 272 268 260 247 232 222 218 218 218 219 223 226 228 229 230 232 234 237 241 244 250 258 265 270 274 276 274 268 260 255 253 254 258 263 268 275 282 287 289 290 295 301 307 309 309 309 312 316 318 319 321 323 325 325 325 326 327 328 330 331 331 331 330 328 327 325 324 321 318 315 311 307 304 301 299 298 296 293 291
285 286 286 284 279 275 271 267 263 258 249 235 221 211 210 214 218 221 224 227 230 231 233 235 237 240 244 249 255 262 270 273 274 271 268 263 258 253 252 254 259 265 271 277 282 286 289 294 300 305 307 308 308 309 312 315 317 319 321 323 324 324 325 326 327 328 330 331 332 332 331 330 329 328 326 324 321 317 314 310 307 304 302 300 298 296 294
287 285 281 275 269 265 261 258 252 244 232 220 210 205 206 212 216 219 222 226 228 230 231 233 237 242 248 255 262 268 273 272 268 262 256 252 248 247 251 257 264 269 273 278 282 286 291 297 303 305 305 306 307 307 310 314 316 318 321 323 323 324 325 326 327 329 330 331 332 332 332 332 331 330 328 326 323 319 316 313 309 307 305 302 300 299 297
283 278 271 265 261 257 251 246 240 229 217 208 203 202 205 210 214 217 220 223 226 227 228 232 239 247 254 261 266 269 268 264 257 251 245 242 242 246 253 259 265 270 276 281 285 288 293 299 303 304 304 305 306 306 309 312 315 318 321 322 323 323 324 325 327 329 330 331 331 332 332 332 331 330 329 327 324 321 318 315 312 309 307 305 303 301 299
Height
10816 10814 10812 10810 10809 10808 10805 10803 10802 10801 10799 10798 10796 10794 10793 10790 10789 10788 10786 10784 10782 10780 10778 10774 10771 10767 10764 10761 10757 10754 10751 10747 10742 10738 10734 10730 10726 10721 10717 10712 10708 10703 10700 10697 10696 10694 10692 10691 10692 10692 10692 10693 10695 10696 10696 10696 10697 10698 10701 10708 10719 10728 10736 10742 10747 10753 10761 10769 10778 10788 10793 10798 10806 10812 10820 10829 10833 10838 10846 10851 10856 10862 10867 10872 10879 10888 10900
10811 10810 10808 10806 10805 10804 10802 10800 10799 10798 10796 10795 10793 10792 10790 10788 10786 10784 10783 10781 10778 10776 10774 10772 10768 10765 10761 10757 10754 10750 10747 10744 10740 10735 10731 10727 10723 10719 10714 10710 10706 10701 10698 10695 10693 10692 10689 10686 10686 10686 10686 10687 10688 10690 10691 10691 10692 10695 10698 10705 10713 10717 10724 10734 10741 10747 10756 10763 10771 10778 10782 10790 10800 10809 10820 10828 10831 10837 10844 10846 10850 10854 10858 10862 10867 10876 10892
10807 10805 10804 10802 10801 10800 10798 10797 10796 10794 10793 10792 10790 10789 10787 10785 10783 10781 10779 10777 10775 10772 10770 10768 10765 10762 10758 10754 10750 10746 10744 10741 10737 10733 10729 10724 10720 10716 10712 10708 10704 10700 10696 10692 10690 10688 10687 10684 10681 10680 10680 10680 10681 10683 10685 10686 10688 10690 10693 10700 10706 10710 10719 10727 10732 10739 10748 10756 10763 10768 10773 10785 10796 10804 10814 10819 10821 10825 10829 10832 10840 10847 10852 10857 10862 10875 10893
10803 10801 10799 10798 10797 10796 10795 10793 10792 10791 10790 10788 10787 10785 10784 10782 10780 10778 10776 10773 10771 10768 10766 10764 10761 10758 10754 10750 10746 10743 10740 10737 10734 10730 10726 10722 10717 10713 10709 10705 10702 10698 10694 10690 10687 10684 10683 10681 10678 10676 10674 10674 10675 10677 10679 10681 10683 10685 10689 10696 10700 10706 10714 10720 10725 10733 10740 10749 10756 10760 10768 10779 10786 10791 10795 10797 10800 10807 10814 10824 10833 10839 10845 10849 10858 10875 10890
10799 10797 10795 10794 10793 10793 10792 10790 10789 10788 10786 10785 10783 10782 10780 10778 10776 10774 10773 10770 10768 10765 10762 10760 10757 10754 10750 10747 10743 10740 10737 10734 10731 10727 10723 10719 10715 10711 10707 10703 10699 10695 10691 10688 10684 10681 10679 10677 10675 10673 10670 10669 10670 10671 10673 10675 10677 10679 10684 10689 10694 10701 10707 10712 10719 10726 10732 10739 10745 10751 10759 10768 10775 10781 10784 10787 10796 10806 10816 10827 10834 10839 10842 10845 10854 10870 10881
10795 10793 10791 10790 10790 10789 10788 10787 10785 10784 10783 10781 10780 10778 10777 10775 10773 10771 10769 10767 10765 10762 10759 10756 10753 10750 10747 10743 10740 10736 10733 10730 10727 10723 10720 10716 10713 10708 10704 10700 10696 10693 10689 10686 10682 10679 10676 10674 10671 10669 10668 10666 10666 10666 10668 10669 10670 10674 10679 10683 10688 10695 10699 10705 10712 10718 10723 10730 10736 10743 10751 10759 10769 10776 10779 10787 10800 10808 10816 10824 10830 10835 10838 10840 10852 10867 10876
10792 10790 10788 10787 10786 10785 10784 10784 10782 10780 10779 10778 10776 10775 10773 10772 10769 10767 10765 10763 10761 10758 10755 10753 10750 10747 10743 10740 10737 10733 10730 10727 10723 10720 10717 10713 10710 10706 10702 10698 10695 10691 10687 10683 10680 10677 10674 10671 10668 10666 10664 10663 10663 10662 10663 10664 10665 10669 10672 10676 10682 10686 10691 10698 10705 10710 10716 10724 10731 10738 10745 10752 10760 10765 10769 10779 10791 10800 10809 10817 10822 10827 10831 10835 10846 10859 10867
10788 10787 10785 10784 10782 10781 10780 10780 10778 10777 10775 10774 10772 10771 10770 10768 10766 10763 10761 10759 10756 10753 10751 10748 10746 10743 10740 10737 10734 10730 10727 10724 10720 10716 10713 10710 10707 10704 10700 10696 10693 10689 10684 10680 10677 10674 10672 10669 10666 10663 10661 10659 10659 10659 10659 10660 10663 10665 10667 10671 10676 10680 10685 10692 10697 10703 10710 10717 10725 10732 10738 10745 10753 10759 10765 10775 10785 10793 10799 10806 10812 10817 10823 10831 10840 10849 10858
10785 10783 10782 10780 10778 10777 10776 10775 10775 10773 10771 10769 10768 10767 10765 10764 10761 10759 10757 10755 10752 10749 10746 10744 10742 10740 10737 10733 10730 10727 10723 10720 10717 10713 10710 10707 10704 10701 10698 10694 10690 10686 10682 10678 10674 10671 10669 10667 10664 10661 10658 10656 10656 10655 10655 10657 10660 10662 10664 10667 10671 10675 10680 10685 10691 10696 10702 10709 10716 10722 10728 10737 10744 10752 10760 10769 10778 10785 10791 10798 10805 10811 10819 10828 10832 10839 10852
10780 10779 10778 10776 10774 10773 10772 10771 10770 10769 10767 10765 10764 10762 10761 10759 10757 10755 10753 10751 10748 10745 10742 10740 10737 10736 10734 10730 10726 10723 10720 10717 10714 10710 10707 10704 10701 10698 10695 10692 10688 10684 10680 10676 10671 10668 10666 10664 10662 10659 10657 10654 10653 10652 10652 10653 10656 10658 10660 10663 10667 10672 10676 10680 10685 10690 10696 10702 10708 10712 10718 10727 10735 10743 10754 10762 10769 10776 10783 10791 10798 10806 10815 10823 10827 10838 10851
10775 10774 10773 10772 10770 10768 10767 10766 10764 10763 10762 10761 10759 10757 10756 10754 10753 10751 10749 10747 10745 10742 10739 10736 10733 10731 10729 10727 10723 10719 10717 10714 10711 10707 10704 10701 10699 10696 10692 10689 10686 10682 10678 10674 10669 10666 10663 10661 10659 10657 10654 10652 10651 10650 10649 10650 10652 10654 10656 10659 10664 10667 10670 10675 10680 10685 10690 10695 10700 10705 10713 10722 10730 10739 10748 10757 10764 10770 10776 10784 10792 10800 10808 10816 10823 10834 10841
10769 10768 10767 10766 10765 10763 10761 10760 10759 10758 10757 10755 10754 10752 10750 10749 10748 10746 10744 10742 10740 10738 10735 10732 10730 10727 10725 10723 10719 10716 10714 10711 10708 10705 10702 10699 10696 10693 10690 10687 10683 10680 10676 10672 10668 10664 10661 10658 10656 10654 10652 10650 10649 10648 10647 10647 10648 10650 10652 10655 10659 10662 10667 10671 10676 10680 10684 10689 10694 10699 10707 10717 10726 10733 10741 10750 10756 10761 10768 10778 10787 10794 10801 10807 10812 10818 10823
10762 10761 10761 10760 10759 10757 10755 10754 10753 10752 10751 10750 10748 10747 10745 10744 10742 10741 10739 10737 10735 10734 10731 10728 10727 10724 10721 10718 10716 10713 10711 10708 10706 10703 10699 10696 10693 10690 10687 10684 10681 10677 10674 10670 10666 10662 10659 10657 10655 10652 10650 10648 10647 10646 10645 10645 10645 10646 10649 10651 10655 10659 10663 10667 10672 10676 10680 10684 10689 10694 10701 10710 10717 10723 10734 10742 10746 10751 10761 10772 10779 10785 10793 10798 10802 10808 10814
10754 10754 10754 10753 10752 10751 10749 10748 10747 10746 10745 10743 10743 10741 10740 10738 10737 10735 10734 10732 10730 10729 10726 10724 10723 10721 10717 10714 10712 10710 10708 10705 10702 10700 10697 10694 10691 10688 10685 10681 10678 10675 10672 10668 10664 10661 10657 10655 10653 10651 10648 10646 10645 10643 10643 10643 10643 10644 10646 10648 10651 10655 10659 10663 10667 10671 10675 10679 10683 10689 10697 10706 10711 10717 10726 10732 10736 10743 10753 10762 10770 10776 10782 10786 10793 10802 10808
10747 10746 10746 10746 10745 10744 10743 10741 10740 10739 10738 10737 10736 10735 10734 10733 10732 10730 10729 10727 10725 10724 10721 10719 10719 10717 10714 10711 10708 10706 10704 10701 10699 10696 10694 10691 10688 10685 10682 10679 10676 10673 10669 10666 10662 10659 10656 10653 10651 10649 10647 10645 10643 10641 10641 10641 10642 10642 10643 10645 10648 10651 10655 10658 10662 10667 10671 10674 10677 10683 10691 10699 10705 10711 10716 10721 10727 10735 10743 10751 10761 10768 10772 10776 10783 10793 10800
10740 10739 10739 10738 10738 10737 10736 10734 10733 10732 10731 10730 10729 10729 10728 10727 10726 10725 10724 10722 10721 10719 10716 10714 10713 10711 10709 10706 10704 10702 10700 10698 10695 10693 10691 10689 10685 10682 10679 10676 10673 10670 10667 10664 10660 10657 10654 10651 10650 10648 10646 10644 10642 10641 10640 10640 10640 10640 10641 10643 10645 10647 10651 10654 10658 10663 10666 10668 10672 10677 10683 10690 10696 10701 10705 10711 10719 10726 10733 10741 10750 10756 10760 10766 10775 10785 10793
10734 10733 10732 10731 10731 10730 10729 10728 10726 10725 10724 10723 10723 10722 10722 10721 10720 10719 10718 10717 10715 10713 10712 10709 10707 10705 10703 10701 10700 10698 10696 10693 10691 10689 10688 10685 10682 10679 10676 10673 10670 10667 10664 10661 10658 10655 10652 10649 10648 10646 10645 10643 10642 10640 10639 10639 10638 10638 10638 10639 10641 10644 10647 10650 10654 10658 10661 10662 10666 10672 10678 10683 10686 10689 10696 10703 10710 10717 10722 10729 10740 10748 10753 10759 10768 10776 10785
10728 10727 10726 10725 10724 10724 10723 10721 10720 10718 10717 10716 10716 10715 10714 10714 10713 10712 10711 10710 10709 10707 10706 10704 10701 10699 10697 10696 10695 10694 10691 10689 10687 10685 10683 10681 10678 10676 10673 10670 10667 10664 10661 10658 10655 10652 10649 10647 10646 10645 10643 10641 10640 10640 10639 10637 10637 10636 10636 10637 10639 10641 10643 10646 10649 10652 10654 10657 10662 10668 10672 10675 10676 10681 10689 10695 10700 10706 10712 10720 10733 10742 10745 10750 10758 10765 10772
10721 10720 10719 10718 10718 10717 10716 10715 10713 10711 10710 10709 10709 10708 10707 10707 10706 10705 10704 10703 10702 10701 10700 10697 10695 10693 10692 10691 10690 10689 10687 10685 10682 10680 10679 10676 10674 10672 10670 10667 10664 10662 10658 10655 10652 10649 10647 10645 10643 10643 10642 10640 10639 10639 10638 10637 10636 10635 10634 10636 10636 10636 10638 10641 10644 10646 10649 10652 10658 10662 10664 10666 10670 10676 10682 10686 10691 10698 10705 10714 10724 10731 10734 10741 10748 10754 10760
10715 10714 10713 10712 10711 10710 10710 10708 10707 10705 10704 10703 10702 10701 10700 10700 10699 10698 10698 10696 10695 10695 10694 10692 10690 10689 10687 10686 10685 10684 10683 10681 10679 10676 10675 10672 10670 10668 10666 10664 10661 10659 10656 10653 10649 10647 10645 10643 10640 10639 10639 10638 10637 10636 10636 10635 10634 10633 10633 10633 10633 10633 10634 10636 10638 10641 10644 10648 10653 10656 10657 10660 10666 10671 10676 10680 10685 10691 10697 10704 10711 10718 10725 10731 10737 10743 10749
10709 10707 10706 10706 10705 10704 10703 10702 10700 10699 10697 10696 10696 10695 10694 10694 10693 10692 10692 10691 10690 10690 10689 10687 10685 10684 10683 10681 10681 10680 10678 10677 10675 10672 10671 10669 10667 10665 10662 10660 10658 10656 10653 10650 10647 10644 10643 10641 10639 10637 10637 10636 10635 10634 10633 10633 10632 10631 10630 10630 10630 10631 10632 10633 10634 10637 10640 10643 10646 10649 10652 10656 10661 10665 10669 10674 10679 10683 10688 10694 10700 10707 10715 10721 10726 10731 10735
10702 10701 10700 10699 10698 10697 10696 10695 10693 10692 10691 10690 10689 10689 10688 10688 10687 10687 10686 10685 10685 10685 10683 10682 10681 10680 10678 10677 10677 10675 10673 10672 10670 10669 10667 10665 10663 10661 10659 10656 10654 10652 10650 10647 10645 10642 10640 10639 10639 10637 10635 10634 10633 10631 10630 10630 10629 10628 10628 10628 10627 10628 10628 10629 10631 10633 10635 10637 10640 10644 10647 10651 10655 10659 10662 10667 10672 10676 10680 10684 10689 10696 10704 10709 10713 10718 10722
10696 10695 10694 10693 10692 10691 10690 10689 10687 10685 10684 10684 10683 10682 10682 10682 10682 10681 10680 10680 10680 10679 10678 10677 10676 10675 10674 10673 10672 10670 10669 10667 10665 10665 10663 10661 10659 10657 10656 10653 10651 10649 10647 10645 10642 10640 10637 10636 10636 10635 10633 10632 10631 10628 10627 10626 10625 10624 10624 10625 10625 10625 10625 10626 10627 10629 10630 10633 10635 10638 10642 10644 10648 10653 10657 10660 10664 10668 10671 10675 10679 10685 10692 10696 10700 10705 10710
10690 10689 10688 10687 10686 10685 10684 10683 10681 10679 10678 10677 10677 10676 10676 10676 10676 10675 10675 10674 10674 10673 10673 10672 10671 10669 10669 10668 10667 10666 10664 10662 10661 10660 10659 10657 10655 10654 10652 10650 10648 10645 10643 10642 10639 10637 10635 10634 10633 10632 10631 10631 10630 10628 10626 10624 10622 10621 10621 10621 10621 10621 10622 10623 10623 10625 10627 10629 10630 10633 10637 10639 10643 10647 10650 10653 10656 10660 10664 10668 10671 10675 10680 10685 10689 10694 10698
10685 10683 10682 10681 10680 10679 10678 10677 10675 10673 10672 10671 10671 10670 10670 10670 10670 10670 10669 10669 10668 10668 10667 10667 10666 10664 10664 10663 10662 10661 10660 10658 10656 10656 10655 10653 10652 10650 10648 10647 10645 10642 10640 10638 10636 10634 10633 10631 10630 10629 10628 10627 10627 10625 10624 10621 10619 10618 10618 10617 10617 10618 10619 10619 10620 10621 10623 10624 10626 10628 10631 10633 10636 10639 10641 10644 10648 10651 10654 10658 10662 10666 10670 10675 10679 10683 10687
10678 10677 10676 10674 10673 10672 10672 10670 10669 10667 10666 10665 10664 10664 10664 10664 10663 10663 10663 10663 10662 10662 10661 10661 10660 10660 10659 10658 10657 10656 10655 10653 10652 10651 10650 10649 10648 10646 10645 10643 10641 10640 10638 10635 10633 10631 10629 10628 10627 10626 10625 10624 10622 10621 10620 10618 10617 10616 10615 10614 10614 10615 10615 10616 10617 10618 10619 10620 10620 10622 10624 10626 10628 10630 10632 10636 10639 10642 10645 10648 10651 10654 10659 10665 10670 10673 10676
10672 10671 10669 10668 10667 10666 10665 10664 10662 10661 10659 10659 10658 10658 10657 10657 10657 10657 10657 10657 10656 10656 10655 10655 10655 10654 10654 10653 10652 10651 10650 10649 10648 10646 10646 10645 10643 10642 10641 10639 10638 10636 10635 10633 10630 10628 10626 10625 10624 10623 10621 10620 10619 10618 10617 10616 10614 10613 10612 10612 10611 10611 10612 10613 10613 10614 10615 10616 10616 10618 10619 10620 10621 10624 10625 10628 10630 10633 10636 10640 10643 10646 10650 10654 10659 10663 10666
10666 10664 10663 10662 10661 10660 10659 10657 10656 10654 10653 10652 10652 10651 10651 10651 10651 10651 10651 10650 10650 10649 10649 10650 10650 10649 10648 10648 10647 10646 10645 10644 10643 10642 10641 10640 10639 10638 10636 10635 10634 10633 10631 10629 10627 10625 10624 10622 10621 10619 10618 10617 10616 10615 10613 10612 10611 10610 10610 10610 10609 10608 10608 10609 10609 10610 10611 10611 10612 10613 10614 10615 10616 10618 10620 10621 10622 10625 10627 10630 10634 10637 10640 10643 10647 10652 10656
10659 10658 10657 10655 10654 10653 10652 10650 10649 10647 10646 10645 10644 10644 10644 10644 10644 10644 10644 10644 10643 10643 10643 10644 10644 10643 10642 10642 10641 10641 10640 10639 10638 10637 10637 10636 10635 10634 10632 10631 10630 10629 10628 10626 10624 10622 10621 10619 10618 10616 10615 10615 10614 10612 10610 10609 10608 10607 10607 10606 10606 10605 10605 10605 10606 10606 10607 10607 10608 10608 10609 10610 10610 10612 10613 10614 10615 10617 10619 10621 10624 10627 10629 10633 10637 10641 10645
10653 10652 10650 10649 10647 10646 10645 10643 10642 10640 10639 10638 10637 10636 10636 10636 10636 10636 10636 10636 10636 10636 10637 10638 10638 10638 10637 10636 10636 10635 10635 10635 10634 10633 10632 10632 10631 10630 10628 10627 10626 10625 10624 10623 10621 10619 10618 10617 10616 10614 10613 10612 10612 10610 10608 10606 10604 10603 10603 10603 10603 10603 10603 10602 10603 10603 10603 10604 10604 10604 10604 10605 10605 10606 10607 10607 10608 10610 10611 10613 10615 10618 10620 10624 10627 10630 10634
10647 10646 10644 10642 10641 10639 10637 10636 10634 10633 10631 10630 10629 10628 10628 10628 10628 10628 10629 10629 10629 10630 10630 10631 10632 10632 10631 10631 10630 10630 10630 10630 10629 10628 10628 10628 10627 10625 10624 10623 10622 10621 10620 10619 10617 10616 10615 10614 10613 10612 10610 10610 10609 10607 10605 10604 10602 10600 10600 10601 10600 10599 10599 10599 10599 10599 10599 10599 10600 10600 10600 10600 10600 10600 10601 10601 10601 10603 10604 10605 10608 10610 10611 10614 10617 10620 10623
10641 10640 10638 10637 10635 10633 10631 10629 10627 10625 10623 10621 10620 10620 10620 10620 10620 10620 10621 10622 10622 10623 10623 10624 10624 10625 10626 10625 10625 10625 10625 10625 10624 10624 10624 10623 10622 10621 10620 10619 10618 10617 10616 10615 10613 10612 10612 10611 10610 10609 10608 10607 10606 10605 10603 10601 10600 10598 10598 10598 10597 10595 10595 10595 10594 10594 10594 10594 10594 10594 10594 10594 10594 10594 10594 10594 10594 10596 10597 10599 10600 10602 10603 10605 10607 10610 10613
10635 10633 10632 10630 10628 10626 10624 10622 10620 10617 10615 10614 10613 10612 10612 10612 10613 10613 10614 10615 10616 10616 10617 10617 10618 10619 10619 10619 10619 10620 10620 10620 10620 10620 10619 10618 10618 10617 10616 10615 10614 10614 10612 10611 10610 10609 10608 10607 10607 10607 10605 10604 10603 10602 10600 10599 10598 10597 10596 10596 10594 10592 10592 10591 10590 10589 10589 10588 10588 10588 10588 10588 10588 10588 10588 10587 10588 10589 10590 10591 10593 10594 10596 10598 10599 10602 10604
10628 10626 10625 10623 10621 10619 10617 10615 10613 10611 10609 10608 10607 10607 10606 10607 10607 10608 10608 10609 10610 10610 10611 10611 10612 10613 10614 10614 10614 10615 10615 10615 10616 10616 10615 10614 10613 10613 10612 10611 10610 10609 10608 10607 10606 10605 10605 10604 10604 10603 10602 10601 10601 10600 10598 10597 10596 10595 10594 10593 10591 10590 10588 10587 10586 10585 10584 10583 10583 10583 10583 10582 10582 10582 10582 10581 10581 10581 10582 10583 10585 10585 10587 10589 10591 10593 10594
10621 10620 10618 10617 10615 10613 10611 10609 10607 10606 10605 10604 10603 10603 10602 10602 10602 10603 10604 10604 10605 10605 10606 10607 10607 10608 10608 10609 10609 10609 10610 10611 10611 10611 10610 10610 10609 10609 10608 10607 10607 10605 10604 10603 10602 10601 10601 10601 10601 10600 10600 10599 10599 10597 10596 10595 10594 10593 10591 10590 10588 10587 10584 10583 10581 10580 10579 10578 10578 10577 10577 10576 10576 10576 10576 10575 10575 10574 10575 10576 10577 10577 10578 10579 10582 10583 10584
10614 10613 10611 10610 10608 10607 10605 10603 10602 10601 10600 10600 10599 10599 10598 10598 10599 10599 10599 10600 10601 10601 10601 10602 10602 10602 10603 10603 10603 10604 10605 10607 10607 10607 10606 10605 10605 10604 10604 10604 10603 10601 10600 10599 10598 10598 10598 10598 10597 10597 10597 10597 10596 10594 10593 10592 10591 10589 10587 10586 10584 10582 10580 10578 10577 10576 10575 10573 10572 10572 10571 10570 10570 10569 10569 10569 10569 10568 10568 10569 10569 10570 10570 10571 10572 10573 10574
10607 10606 10605 10603 10602 10600 10599 10597 10596 10596 10596 10595 10595 10594 10594 10594 10595 10595 10595 10595 10596 10596 10596 10597 10597 10597 10598 10598 10597 10599 10601 10603 10603 10603 10602 10601 10601 10600 10600 10600 10599 10597 10596 10595 10595 10595 10595 10595 10594 10594 10594 10593 10592 10592 10590 10588 10587 10585 10583 10581 10579 10577 10576 10574 10572 10571 10569 10568 10567 10566 10565 10564 10564 10563 10562 10562 10562 10561 10561 10561 10562 10562 10562 10562 10563 10564 10564
10600 10599 10598 10597 10596 10594 10593 10591 10591 10591 10591 10590 10590 10590 10590 10590 10590 10590 10590 10591 10591 10591 10591 10591 10592 10592 10593 10593 10593 10595 10598 10598 10598 10598 10598 10597 10597 10596 10595 10595 10595 10593 10592 10592 10592 10592 10592 10592 10591 10591 10590 10589 10588 10588 10586 10584 10582 10580 10578 10577 10575 10573 10571 10569 10567 10565 10564 10563 10562 10561 10559 10558 10558 10557 10556 10555 10555 10554 10554 10553 10554 10554 10554 10553 10554 10555 10555
10593 10592 10591 10590 10589 10588 10586 10586 10585 10585 10585 10585 10585 10585 10585 10585 10585 10585 10585 10585 10586 10586 10585 10586 10586 10587 10588 10589 10590 10592 10593 10593 10594 10593 10592 10592 10592 10592 10590 10590 10590 10589 10588 10589 10589 10589 10589 10588 10587 10587 10586 10585 10584 10584 10582 10580 10578 10576 10574 10572 10570 10568 10566 10564 10562 10560 10559 10557 10556 10555 10553 10552 10552 10551 10550 10549 10548 10547 10547 10546 10546 10546 10545 10545 10545 10545 10546
10586 10585 10584 10584 10583 10581 10580 10579 10579 10579 10579 10579 10579 10579 10579 10579 10579 10579 10579 10579 10579 10580 10580 10580 10581 10582 10584 10585 10587 10588 10588 10588 10589 10589 10588 10588 10588 10588 10586 10586 10586 10585 10585 10585 10586 10586 10585 10584 10584 10584 10583 10582 10581 10580 10578 10576 10574 10572 10570 10567 10565 10563 10561 10559 10557 10556 10554 10552 10551 10549 10547 10546 10545 10545 10543 10542 10541 10540 10539 10538 10538 10537 10537 10536 10536 10536 10536
10579 10578 10577 10577 10576 10575 10573 10573 10572 10572 10573 10572 10572 10572 10572 10573 10573 10573 10573 10573 10573 10573 10574 10575 10576 10578 10579 10581 10582 10583 10584 10584 10584 10584 10584 10583 10583 10583 10583 10583 10582 10582 10582 10582 10583 10583 10583 10582 10581 10581 10580 10578 10578 10576 10574 10572 10570 10568 10566 10563 10561 10559 10556 10554 10553 10551 10549 10547 10545 10543 10541 10540 10538 10537 10536 10535 10534 10533 10531 10530 10529 10529 10528 10527 10527 10526 10526
10572 10571 10570 10569 10568 10567 10567 10566 10566 10566 10566 10566 10566 10566 10566 10566 10566 10566 10566 10566 10567 10568 10569 10570 10572 10573 10575 10576 10578 10578 10579 10579 10579 10580 10580 10579 10578 10579 10579 10579 10579 10579 10579 10579 10579 10579 10579 10579 10578 10577 10576 10575 10574 10572 10570 10568 10566 10564 10562 10559 10557 10555 10552 10550 10548 10546 10544 10542 10540 10538 10536 10534 10532 10530 10529 10527 10526 10525 10524 10522 10521 10520 10519 10518 10517 10516 10516
10565 10564 10563 10562 10561 10560 10560 10560 10560 10559 10559 10559 10559 10559 10559 10559 10559 10559 10559 10560 10561 10563 10564 10566 10568 10569 10571 10572 10573 10574 10574 10575 10575 10575 10575 10575 10575 10576 10576 10575 10575 10576 10576 10576 10576 10576 10575 10575 10575 10574 10572 10571 10570 10568 10567 10565 10563 10560 10558 10555 10553 10551 10549 10546 10544 10542 10540 10537 10535 10533 10530 10528 10526 10524 10522 10520 10518 10517 10515 10514 10513 10511 10510 10509 10508 10507 10506
10558 10557 10556 10555 10554 10554 10553 10553 10553 10553 10553 10553 10552 10552 10552 10551 10552 10553 10554 10555 10557 10559 10561 10562 10564 10566 10567 10569 10569 10570 10571 10571 10572 10572 10571 10572 10572 10572 10572 10571 10572 10572 10573 10573 10573 10573 10572 10572 10571 10570 10569 10567 10566 10565 10563 10561 10559 10557 10554 10552 10550 10547 10545 10543 10540 10538 10536 10533 10531 10528 10526 10523 10520 10517 10515 10513 10511 10508 10506 10505 10503 10502 10500 10499 10497 10496 10495
10552 10550 10548 10547 10547 10547 10547 10547 10547 10546 10546 10545 10545 10545 10545 10545 10546 10548 10550 10552 10554 10556 10557 10559 10560 10562 10564 10565 10565 10566 10567 10568 10568 10568 10568 10569 10569 10569 10568 10568 10569 10569 10569 10570 10570 10570 10569 10569 10568 10567 10565 10564 10563 10561 10559 10557 10555 10553 10551 10549 10546 10544 10542 10539 10537 10534 10532 10529 10526 10523 10521 10518 10515 10512 10509 10506 10504 10501 10499 10496 10494 10493 10491 10489 10487 10486 10485
10545 10543 10541 10540 10540 10540 10540 10539 10539 10539 10538 10538 10538 10538 10539 10541 10542 10544 10546 10548 10550 10552 10554 10555 10557 10558 10559 10560 10561 10562 10563 10564 10564 10565 10565 10565 10565 10565 10564 10565 10565 10566 10566 10567 10567 10567 10567 10566 10565 10563 10562 10560 10559 10557 10556 10554 10552 10550 10547 10545 10543 10540 10538 10536 10533 10531 10528 10525 10522 10519 10516 10513 10510 10507 10504 10501 10498 10495 10492 10489 10487 10484 10482 10480 10478 10476 10474
10538 10536 10535 10534 10534 10533 10533 10532 10531 10531 10531 10532 10533 10534 10535 10537 10539 10540 10542 10544 10546 10548 10549 10551 10553 10554 10554 10556 10557 10559 10560 10560 10561 10561 10561 10561 10561 10561 10561 10562 10562 10563 10563 10563 10563 10563 10563 10563 10561 10560 10558 10557 10556 10554 10552 10550 10548 10546 10544 10541 10539 10537 10535 10532 10530 10527 10524 10521 10518 10515 10511 10508 10504 10501 10497 10494 10491 10487 10484 10481 10478 10476 10474 10471 10468 10466 10464
10531 10530 10529 10528 10527 10526 10526 10525 10524 10524 10525 10527 10528 10530 10532 10534 10536 10538 10539 10541 10542 10543 10545 10547 10548 10549 10551 10553 10555 10556 10556 10557 10557 10557 10557 10557 10557 10557 10557 10558 10559 10560 10560 10560 10559 10559 10560 10559 10557 10556 10555 10554 10552 10550 10549 10547 10544 10542 10540 10538 10536 10533 10531 10529 10526 10523 10520 10517 10513 10510 10506 10502 10499 10495 10491 10487 10483 10480 10476 10473 10470 10467 10465 10462 10459 10456 10454
10524 10523 10522 10521 10520 10519 10518 10518 10518 10519 10520 10522 10524 10527 10530 10532 10534 10535 10537 10538 10539 10540 10542 10544 10545 10546 10548 10550 10552 10552 10552 10552 10552 10552 10553 10553 10553 10553 10554 10555 10556 10556 10556 10556 10556 10556 10555 10554 10553 10552 10551 10549 10548 10546 10545 10543 10541 10539 10537 10535 10532 10530 10527 10525 10522 10518 10515 10512 10508 10505 10501 10497 10493 10489 10484 10480 10476 10473 10469 10466 10462 10459 10457 10454 10450 10447 10445
10518 10517 10515 10514 10513 10512 10512 10513 10514 10515 10516 10518 10521 10524 10527 10529 10531 10533 10534 10535 10536 10538 10540 10542 10543 10544 10545 10546 10548 10548 10548 10548 10548 10548 10548 10549 10550 10550 10551 10552 10552 10553 10553 10552 10552 10552 10551 10550 10549 10548 10547 10545 10544 10543 10541 10539 10537 10535 10533 10531 10528 10525 10523 10520 10517 10514 10510 10507 10503 10500 10496 10491 10487 10483 10478 10474 10470 10466 10462 10459 10455 10452 10449 10446 10442 10439 10436
10510 10509 10508 10507 10507 10507 10508 10508 10510 10511 10513 10515 10518 10521 10524 10527 10529 10530 10531 10531 10533 10535 10538 10539 10540 10541 10542 10543 10544 10544 10544 10544 10544 10544 10545 10545 10546 10547 10547 10548 10549 10549 10549 10549 10548 10548 10547 10546 10545 10544 10543 10542 10540 10539 10537 10535 10533 10531 10529 10527 10524 10521 10518 10515 10512 10509 10505 10501 10497 10494 10490 10486 10481 10477 10472 10468 10463 10459 10455 10452 10448 10444 10441 10438 10434 10431 10429
10503 10502 10501 10501 10502 10503 10504 10505 10506 10508 10510 10512 10515 10518 10521 10524 10525 10526 10527 10528 10529 10532 10534 10536 10537 10538 10539 10540 10541 10541 10541 10540 10540 10541 10541 10542 10543 10544 10544 10545 10545 10545 10545 10545 10545 10544 10543 10543 10542 10541 10539 10538 10536 10535 10533 10531 10529 10527 10525 10522 10519 10517 10514 10511 10507 10504 10500 10496 10492 10488 10484 10480 10475 10471 10466 10462 10457 10452 10448 10444 10440 10436 10433 10430 10427 10424 10421